Flag for Germany Weather past 2 weeks in Coburg, Bavaria, Germany

Now
36 °F

Freezing rain. Partly sunny.


Feels Like: 33 °F
Forecast: 33 / 36 °F
Wind: 3 mph from Southwest

Location: Bamberg

Current Time: Jan 26, 2015 at 1:53:15 PM

Latest Report: Jan 26, 2015 at 1:00 PM


Visibility: 8 mi

Pressure: 30.25 "Hg

Humidity: 89%

Dew point: 33 °F

Location of CoburgLocation

Historic Weather in Coburg — Graph

°F

Coburg temperature yesterday

Maximum temperature yesterday: 38 °F (at 1:00 PM)
Minimum temperature yesterday: 30 °F (at 8:00 AM)
Average temperature yesterday: 34 °F

Past Weeks' High & Low Weather Summary

 TemperatureHumidityPressure
High53 °F (Jan 13, 3:00 PM)100% (Jan 18, 1:00 AM)30.41 "Hg (Jan 18, 1:00 AM)
Low27 °F (Jan 21, 8:00 AM)38% (Jan 13, 12:00 PM)29.73 "Hg (Jan 16, 10:00 PM)
Average37 °F82%30.04 "Hg
* Reported Jan 11 12:00 Noon — Jan 26 12:00 Noon, Coburg, Weather by CustomWeather, © 2014

Note: Actual official high and low records may vary slightly from our data, if they occured in-between our weather recording intervals... More about our weather records

Advertising

Coburg weather history for previous 24 hours

 ConditionsComfort  
Time TempWeatherWind HumidityBarometerVisibility
12:00 PM
Jan 26
36 °FLight rain. Overcast.5 mph88%30.27 "Hg7 mi
11:00 AM36 °FDrizzle. Overcast.3 mph85%30.29 "Hg7 mi
10:00 AM35 °FPartly sunny.2 mph88%30.31 "Hg5 mi
9:00 AM35 °FOvercast.2 mph89%30.32 "Hg6 mi
8:00 AM35 °FPartly sunny.1 mph89%30.33 "Hg6 mi
7:00 AM35 °FFog.1 mph92%30.33 "Hg4 mi
6:00 AM35 °FFog.1 mph93%30.33 "Hg4 mi
5:00 AM35 °FFog.2 mph92%30.34 "Hg4 mi
4:00 AM33 °FFog.1 mph96%30.35 "Hg3 mi
3:00 AM34 °FOvercast.1 mph93%30.35 "Hg5 mi
2:00 AM35 °FOvercast.1 mph89%30.36 "Hg6 mi
1:00 AM34 °FPassing clouds.1 mph94%30.37 "Hg4 mi
12:00 AM34 °FFog.1 mph94%30.37 "Hg4 mi
11:00 PM
Jan 25
34 °FFog.1 mph95%30.39 "Hg3 mi
10:00 PM35 °FPassing clouds.1 mph88%30.39 "Hg5 mi
9:00 PM35 °FOvercast.1 mph87%30.38 "Hg6 mi
8:00 PM35 °FOvercast.1 mph88%30.39 "Hg6 mi
7:00 PM35 °FOvercast.1 mph90%30.39 "Hg6 mi
6:00 PM35 °FDrizzle. Overcast.1 mph91%30.39 "Hg6 mi
5:00 PM35 °FOvercast.1 mph93%30.38 "Hg5 mi
4:00 PM35 °FLight freezing rain. Partly sunny.2 mph91%30.38 "Hg6 mi
3:00 PM36 °FFreezing rain. Scattered clouds.2 mph86%30.37 "Hg4 mi
2:00 PM36 °FLight snow. Partly sunny.3 mph79%30.38 "Hg12 mi
1:00 PM38 °FOvercast.3 mph73%30.39 "Hg22 mi
Weather by CustomWeather, © 2014

See weather overviewHow to use our weather pages